Weather History for Wright-Patt AFB, OH

Change the Weather History Date:

Thursday, February 20, 2014

  Actual Average Record
Temperature  
Mean Temperature 46 °F -  
Max Temperature 63 °F 40 °F 63 °F (2014)
Min Temperature 28 °F 23 °F 3 °F (2008)
Degree Days  
Heating Degree Days 20    
Moisture  
Dew Point 40 °F    
Average Humidity 79    
Maximum Humidity 93    
Minimum Humidity 64    
Precipitation  
Precipitation 0.56 in - - ()
Sea Level Pressure  
Sea Level Pressure 29.78 in    
Wind  
Wind Speed 8 mph (SE)    
Max Wind Speed 28 mph    
Max Gust Speed 40 mph    
Visibility 9 miles    
Events Rain , Thunderstorm    
Averages and records for this station are not official NWS values.
T = Trace of Precipitation, MM = Missing Value Source: NWS Daily Summary

Daily Weather History Graph

Daily Weather History Graph

Search for Another Location

Airport:

Trip Planner

Search our weather history database for the weather conditions in past years. The results will help you decide how hot, cold, wet, or windy it might be!

Date:

Astronomy

Feb. 20, 2014 Rise Set
Actual Time 7:22 AM EST 6:18 PM EST
Civil Twilight 6:54 AM EST 6:45 PM EST
Nautical Twilight 6:23 AM EST 7:17 PM EST
Astronomical Twilight 5:52 AM EST 7:48 PM EST
Moon No Moon Rise 10:05 AM EST (2/20)
Length of Visible Light 11h 50m
Length of Day
10h 55m
Waning Gibbous, 71% of the Moon is Illuminated
Feb 20
Waning Gibbous
Feb 22
Last Quarter
Mar 1
New
Mar 8
First Quarter
Mar 16
Full

Hourly Weather History & Observations

Time (EST) Temp. Windchill Dew Point Humidity Pressure Visibility Wind Dir Wind Speed Gust Speed Precip Events Conditions
12:58 AM 29.1 °F - 26.6 °F 90% 30.08 in 10.0 mi North 2.3 mph - N/A   Partly Cloudy
1:18 AM 28.4 °F 23.3 °F 26.6 °F 93% 30.04 in 9.0 mi North 4.6 mph - N/A   Partly Cloudy
1:28 AM 28.4 °F 20.4 °F 26.6 °F 93% 30.03 in 10.0 mi North 8.1 mph - N/A   Clear
1:58 AM 29.8 °F 24.9 °F 27.1 °F 90% 30.06 in 10.0 mi North 4.6 mph - N/A   Clear
2:18 AM 28.4 °F 24.6 °F 24.8 °F 86% 30.02 in 9.0 mi NNE 3.5 mph - N/A   Clear
2:28 AM 28.4 °F - 26.6 °F 93% 30.03 in 10.0 mi NNE 2.3 mph - N/A   Clear
2:58 AM 28.0 °F - 25.7 °F 91% 30.04 in 10.0 mi Calm Calm - N/A   Clear
3:58 AM 34.0 °F 28.0 °F 27.9 °F 78% 30.01 in 10.0 mi East 6.9 mph - N/A   Clear
4:58 AM 35.1 °F 29.3 °F 28.6 °F 77% 29.98 in 10.0 mi East 6.9 mph - N/A   Mostly Cloudy
5:58 AM 37.0 °F 30.4 °F 29.5 °F 74% 29.95 in 10.0 mi East 9.2 mph - N/A   Overcast
6:58 AM 38.5 °F 32.7 °F 29.7 °F 71% 29.90 in 10.0 mi ESE 8.1 mph - N/A   Overcast
7:47 AM 39.2 °F 33.0 °F 30.2 °F 70% 29.85 in 6.0 mi ESE 9.2 mph - N/A Rain Light Rain
7:54 AM 39.2 °F 32.0 °F 32.0 °F 75% 29.85 in 5.0 mi ESE 11.5 mph 19.6 mph N/A Rain , Thunderstorm Light Rain
7:58 AM 38.8 °F 33.8 °F 31.1 °F 74% 29.89 in 7.0 mi Variable 6.9 mph - 0.01 in Rain , Thunderstorm Light Rain
8:24 AM 37.4 °F 32.8 °F 32.0 °F 81% 29.84 in 7.0 mi Variable 5.8 mph - N/A Rain Light Rain
8:28 AM 37.4 °F 34.9 °F 32.0 °F 81% 29.84 in 10.0 mi East 3.5 mph - N/A Rain Light Rain
8:58 AM 38.1 °F 32.9 °F 33.3 °F 83% 29.86 in 10.0 mi ESE 6.9 mph - 0.04 in   Mostly Cloudy
9:08 AM 37.4 °F 33.8 °F 32.0 °F 81% 29.82 in 10.0 mi ESE 4.6 mph - N/A   Overcast
9:58 AM 41.4 °F 36.2 °F 34.3 °F 76% 29.82 in 10.0 mi SE 8.1 mph - 0.00 in   Overcast
10:58 AM 46.2 °F 44.1 °F 38.1 °F 73% 29.79 in 10.0 mi SSE 4.6 mph - N/A   Overcast
11:28 AM 50.0 °F - 42.8 °F 76% 29.78 in 10.0 mi South 8.1 mph - N/A   Overcast
11:58 AM 52.0 °F - 44.8 °F 76% 29.78 in 10.0 mi South 8.1 mph - N/A   Overcast
12:58 PM 55.8 °F - 49.1 °F 78% 29.73 in 10.0 mi SSE 6.9 mph - N/A   Overcast
1:18 PM 53.6 °F - 48.2 °F 82% 29.72 in 10.0 mi SE 5.8 mph - N/A   Overcast
1:48 PM 55.4 °F - 48.2 °F 77% 29.70 in 10.0 mi SE 5.8 mph - N/A   Overcast
1:58 PM 54.5 °F - 48.7 °F 81% 29.69 in 10.0 mi SE 8.1 mph - N/A   Overcast
2:58 PM 59.0 °F - 52.0 °F 78% 29.66 in 10.0 mi South 9.2 mph - N/A   Overcast
3:58 PM 62.6 °F - 52.5 °F 70% 29.65 in 10.0 mi South 15.0 mph - N/A   Overcast
4:58 PM 63.0 °F - 52.3 °F 68% 29.63 in 10.0 mi South 15.0 mph - N/A   Overcast
5:58 PM 62.2 °F - 51.3 °F 67% 29.60 in 10.0 mi South 15.0 mph - N/A   Mostly Cloudy
6:58 PM 61.7 °F - 50.4 °F 66% 29.56 in 10.0 mi South 18.4 mph 25.3 mph N/A   Mostly Cloudy
7:58 PM 63.0 °F - 50.5 °F 64% 29.56 in 10.0 mi South 23.0 mph 31.1 mph N/A   Overcast
8:58 PM 62.8 °F - 52.5 °F 69% 29.55 in 10.0 mi South 19.6 mph 32.2 mph N/A   Overcast
9:20 PM 62.6 °F - 53.6 °F 72% 29.52 in 10.0 mi South 27.6 mph 40.3 mph N/A   Overcast
9:55 PM 60.8 °F - 55.4 °F 82% 29.51 in 10.0 mi South 23.0 mph 38.0 mph N/A Rain Light Rain
9:58 PM 60.8 °F - 55.8 °F 83% 29.52 in 10.0 mi South 27.6 mph 40.3 mph 0.03 in Rain Light Rain
10:58 PM 59.2 °F - 56.8 °F 92% 29.51 in 8.0 mi SSE 17.3 mph - 0.07 in Rain Light Rain
11:31 PM 57.2 °F - 53.6 °F 88% 29.53 in 1.0 mi West 25.3 mph 33.4 mph N/A Rain Heavy Rain
11:58 PM 49.8 °F - 47.7 °F 92% 29.55 in 3.0 mi WSW 9.2 mph 18.4 mph 0.41 in Rain Light Rain